TimePST,TemperatureF,Dew PointF,Humidity,Sea Level PressureIn,VisibilityMPH,Wind Direction,Wind SpeedMPH,Gust SpeedMPH,PrecipitationIn,Events,Conditions,WindDirDegrees,DateUTC
12:56 AM,57.0,55.9,96,29.98,10.0,SSE,4.6,-,N/A,,Overcast,160,2013-01-27 08:56:00
1:56 AM,55.9,55.0,97,29.99,10.0,SE,4.6,-,N/A,,Mostly Cloudy,140,2013-01-27 09:56:00
2:56 AM,55.0,55.0,100,29.98,10.0,South,4.6,-,N/A,,Mostly Cloudy,170,2013-01-27 10:56:00
3:37 AM,55.4,53.6,94,29.93,10.0,SE,4.6,-,N/A,,Mostly Cloudy,140,2013-01-27 11:37:00
3:46 AM,53.6,53.6,100,29.93,10.0,SSE,4.6,-,N/A,,Overcast,150,2013-01-27 11:46:00
3:56 AM,54.0,54.0,100,29.98,10.0,SSE,6.9,-,N/A,,Overcast,160,2013-01-27 11:56:00
4:56 AM,53.1,53.1,100,29.98,10.0,SSE,9.2,-,N/A,,Overcast,150,2013-01-27 12:56:00
5:56 AM,55.0,55.0,100,29.99,10.0,SSE,8.1,-,N/A,,Overcast,160,2013-01-27 13:56:00
6:56 AM,55.0,55.0,100,30.00,10.0,SSE,3.5,-,N/A,,Overcast,150,2013-01-27 14:56:00
7:56 AM,55.0,55.0,100,30.01,10.0,SSE,8.1,-,0.01,,Overcast,150,2013-01-27 15:56:00
8:56 AM,55.9,55.9,100,30.02,10.0,SE,3.5,-,N/A,,Overcast,130,2013-01-27 16:56:00
9:56 AM,57.0,57.0,100,30.03,10.0,SSE,5.8,-,N/A,,Overcast,150,2013-01-27 17:56:00
10:56 AM,57.9,57.9,100,30.02,10.0,South,4.6,-,N/A,,Overcast,170,2013-01-27 18:56:00
11:28 AM,59.0,57.2,94,29.95,10.0,SE,5.8,-,N/A,,Mostly Cloudy,130,2013-01-27 19:28:00
11:56 AM,62.1,57.9,86,29.99,10.0,ESE,6.9,-,N/A,,Overcast,110,2013-01-27 19:56:00
12:31 PM,62.6,57.2,82,29.93,10.0,SE,8.1,-,N/A,,Scattered Clouds,130,2013-01-27 20:31:00
12:56 PM,63.0,57.9,84,29.96,10.0,SE,9.2,-,N/A,,Partly Cloudy,130,2013-01-27 20:56:00
1:56 PM,64.0,57.0,78,29.94,10.0,SE,6.9,-,N/A,,Clear,130,2013-01-27 21:56:00
2:40 PM,68.0,46.4,46,29.89,10.0,WSW,25.3,32.2,N/A,,Clear,250,2013-01-27 22:40:00
2:56 PM,66.9,46.0,47,29.94,10.0,WSW,26.5,34.5,N/A,,Clear,250,2013-01-27 22:56:00
3:56 PM,64.9,44.1,47,29.94,10.0,WSW,28.8,39.1,N/A,,Clear,250,2013-01-27 23:56:00
4:56 PM,62.1,42.1,48,29.95,10.0,WSW,24.2,31.1,N/A,,Clear,250,2013-01-28 00:56:00
5:56 PM,59.0,39.9,49,29.97,10.0,WSW,27.6,34.5,N/A,,Clear,250,2013-01-28 01:56:00
6:56 PM,57.9,37.9,47,29.99,10.0,SW,21.9,35.7,N/A,,Clear,220,2013-01-28 02:56:00
7:56 PM,55.9,36.0,47,30.00,10.0,WSW,17.3,31.1,N/A,,Clear,240,2013-01-28 03:56:00
8:56 PM,55.0,36.0,49,30.01,10.0,Variable,4.6,-,N/A,,Clear,0,2013-01-28 04:56:00
9:56 PM,55.9,33.1,42,30.02,10.0,NNW,8.1,-,N/A,,Clear,340,2013-01-28 05:56:00
10:56 PM,55.0,34.0,45,30.04,10.0,SW,5.8,-,N/A,,Clear,230,2013-01-28 06:56:00
11:56 PM,52.0,34.0,50,30.04,10.0,West,9.2,-,N/A,,Clear,260,2013-01-28 07:56:00